Flag for Canada Weather past 2 weeks in Conception Bay South, Newfoundland and Labrador, Canada

Now
37 °F

Passing clouds.


Feels Like: 27 °F
Forecast: N/A
Wind: 21 mph from Southwest

Location: St. John's

Current Time: Dec 19, 2014 at 5:46:49 PM

Latest Report: Dec 19, 2014 at 4:30 PM


Visibility: 15 mi

Pressure: 29.53 "Hg

Humidity: 87%

Dew point: 34 °F

Location of Conception Bay SouthLocation

Historic Weather in Conception Bay South — Graph

°F

Conception Bay South temperature yesterday

Maximum temperature yesterday: 45 °F (at 11:30 PM)
Minimum temperature yesterday: 30 °F (at 12:30 AM)
Average temperature yesterday: 37 °F

Past Weeks' High & Low Weather Summary

 TemperatureHumidityPressure
High54 °F (Dec 13, 11:30 AM)100% (Dec 7, 6:30 PM)30.82 "Hg (Dec 7, 6:30 PM)
Low12 °F (Dec 8, 6:30 AM)55% (Dec 5, 11:30 AM)29.35 "Hg (Dec 19, 5:30 AM)
Average35 °F89%30.14 "Hg
* Reported Dec 4 4:30 PM — Dec 19 4:30 PM, Conception Bay South, Weather by CustomWeather, © 2014

Note: Actual official high and low records may vary slightly from our data, if they occured in-between our weather recording intervals... More about our weather records

Advertising

Conception Bay South weather history for previous 24 hours

 ConditionsComfort  
Time TempWeatherWind HumidityBarometerVisibility
4:30 PM
Dec 19
37 °FPassing clouds.21 mph87%29.53 "Hg15 mi
3:30 PM37 °FPartly sunny.22 mph93%29.52 "Hg15 mi
2:30 PM39 °FBroken clouds.25 mph81%29.49 "Hg15 mi
1:30 PM41 °FPartly sunny.26 mph76%29.47 "Hg15 mi
12:30 PM41 °FPartly sunny.36 mph76%29.46 "Hg15 mi
11:30 AM41 °FPartly sunny.28 mph76%29.45 "Hg15 mi
10:30 AM41 °FPartly sunny.25 mph87%29.45 "Hg15 mi
9:30 AM43 °FScattered clouds.32 mph81%29.44 "Hg15 mi
8:30 AM41 °FPartly sunny.28 mph87%29.41 "Hg15 mi
7:30 AM41 °FScattered clouds.29 mph87%29.38 "Hg15 mi
6:30 AM45 °FPassing clouds.21 mph87%29.37 "Hg15 mi
5:30 AM46 °FPassing clouds.20 mph100%29.35 "Hg15 mi
4:30 AM43 °FLight rain. Fog.14 mph100%29.38 "Hg1 mi
3:30 AM45 °FQuite cool.16 mph100%29.45 "Hg1 mi
2:30 AM45 °FDrizzle. Fog.17 mph100%29.49 "Hg1 mi
1:30 AM45 °FDrizzle. Fog.17 mph100%29.51 "Hg1 mi
12:30 AM45 °FLight rain. Fog.20 mph100%29.54 "Hg1 mi
11:30 PM
Dec 18
45 °FLight rain. Fog.17 mph100%29.58 "Hg3 mi
10:30 PM43 °FLight rain. Fog.23 mph100%29.60 "Hg2 mi
9:30 PM41 °FLight rain. Fog.21 mph100%29.63 "Hg1 mi
9:19 PM39 °FLight rain. Fog.21 mph100%29.64 "Hg1 mi
8:30 PM41 °FRain. Fog.21 mph100%29.70 "Hg1 mi
7:30 PM39 °FLight rain. Fog.16 mph100%29.75 "Hg1 mi
6:30 PM39 °FLight rain. Fog.16 mph100%29.78 "Hg0 mi
5:30 PM41 °FDrizzle. Fog.21 mph100%29.82 "Hg0 mi
5:17 PM41 °FDrizzle. Fog.20 mph100%29.83 "Hg0 mi
Weather by CustomWeather, © 2014

See weather overviewHow to use our weather pages